User: anonymous   Login
Location: Unspecified
(0.0000°N, 0.0000°E)
Time: 05:21:55
(UTC+02:00)
Language:

Gurwin Techsat 1B - Orbit

View from above orbital plane
View from above orbital plane
View from above satellite
View from above satellite

Ground track
Ground track

The orbit data is extracted from the following two-line orbital elements,

1 25397U 98043D   15107.46200889  .00000117  00000-0  70057-4 0  9993
2 25397 098.5142 059.8273 0002174 117.1276 021.2560 14.23534977871153
Epoch (UTC): 17 April 2015 11:05:17
Eccentricity: 0.0002174
inclination: 98.5142°
perigee height: 812 km
apogee height: 815 km
right ascension of ascending node: 59.8273°
argument of perigee: 117.1276°
revolutions per day: 14.23534977
mean anomaly at epoch: 21.2560°
orbit number at epoch: 87115

The dashed part of the orbit path shows where the satellite is in the earth's shadow,  

DLR